DW2017 Weather Reports


Display with metric or nautical units.
time (UTC)temp
F
wind
direction
speed
MPH
gust
MPH
rain 1hr
in
rain 24hr
in
rain mn
in
humidity
%
barometer
mb
20260505211713 68 0.0 0.0 0.00 0.11 0.11 65 998.3
20260505211705 68 0.0 0.0 0.00 0.11 0.11 65 998.3
20260505211206 69 0.0 0.0 0.00 0.11 0.11 61 997.3
20260505210714 70 0.0 0.0 0.00 0.11 0.11 60 996.7
20260505210706 70 0.0 0.0 0.00 0.11 0.11 60 996.7
20260505210206 70 0.0 0.0 0.00 0.11 0.11 60 996.6
20260505205712 70 0.0 0.0 0.00 0.11 0.11 61 996.5
20260505205705 70 0.0 0.0 0.00 0.11 0.11 61 996.5
20260505205217 70 0.0 0.0 0.00 0.11 0.11 63 996.6
20260505205210 70 0.0 0.0 0.00 0.11 0.11 63 996.6
20260505204712 69 0.0 0.0 0.00 0.11 0.11 65 996.6
20260505204705 69 0.0 0.0 0.00 0.11 0.11 65 996.6
20260505204213 69 0.0 0.0 0.00 0.11 0.11 66 996.6
20260505204206 69 0.0 0.0 0.00 0.11 0.11 66 996.6
20260505203712 69 0.0 0.0 0.00 0.11 0.11 66 996.8
20260505203705 69 0.0 0.0 0.00 0.11 0.11 66 996.8
20260505203212 69 0.0 0.0 0.00 0.11 0.11 66 996.9
20260505203206 69 0.0 0.0 0.00 0.11 0.11 66 996.9
20260505202705 69 0.0 0.0 0.00 0.11 0.11 68 996.8
20260505202229 69 0.0 0.0 0.00 0.11 0.11 69 996.6
20260505201705 69 0.0 0.0 0.00 0.11 0.11 70 996.7
20260505201213 68 0.0 0.0 0.00 0.11 0.11 72 996.8
20260505201206 68 0.0 0.0 0.00 0.11 0.11 72 996.8
20260505200706 68 0.0 0.0 0.00 0.11 0.11 74 996.9
20260505200213 67 0.0 0.0 0.00 0.11 0.11 77 996.9
20260505200206 67 0.0 0.0 0.00 0.11 0.11 77 996.9
20260505195712 67 0.0 0.0 0.00 0.11 0.11 77 996.9
20260505195705 67 0.0 0.0 0.00 0.11 0.11 77 996.9
20260505195212 67 0.0 0.0 0.00 0.11 0.11 77 997.2
20260505195205 67 0.0 0.0 0.00 0.11 0.11 77 997.2
20260505194714 66 0.0 0.0 0.00 0.11 0.11 79 997.3
20260505194707 66 0.0 0.0 0.00 0.11 0.11 79 997.3
20260505194214 66 0.0 0.0 0.00 0.11 0.11 78 997.5
20260505194207 66 0.0 0.0 0.00 0.11 0.11 78 997.5
20260505193712 67 0.0 0.0 0.00 0.11 0.11 79 997.6
20260505193705 67 0.0 0.0 0.00 0.11 0.11 79 997.6
20260505193213 67 0.0 0.0 0.00 0.11 0.11 81 997.5
20260505193206 67 0.0 0.0 0.00 0.11 0.11 81 997.5
20260505192714 66 0.0 0.0 0.00 0.11 0.11 83 997.7
20260505192707 66 0.0 0.0 0.00 0.11 0.11 83 997.7
20260505191713 65 0.0 0.0 0.00 0.11 0.11 86 997.8
20260505191705 65 0.0 0.0 0.00 0.11 0.11 86 997.8
20260505191229 65 0.0 0.0 0.00 0.11 0.11 87 998.0
20260505190712 64 0.0 0.0 0.00 0.11 0.11 88 998.2
20260505190705 64 0.0 0.0 0.00 0.11 0.11 88 998.2
20260505190212 63 0.0 0.0 0.00 0.11 0.11 90 998.2
20260505190205 63 0.0 0.0 0.00 0.11 0.11 90 998.2
20260505185714 62 0.0 0.0 0.00 0.11 0.11 91 998.3
20260505185707 62 0.0 0.0 0.00 0.11 0.11 91 998.3
20260505185213 62 0.0 0.0 0.00 0.11 0.11 90 998.2
20260505185206 62 0.0 0.0 0.00 0.11 0.11 90 998.2
20260505184732 62 0.0 0.0 0.01 0.11 0.11 91 998.2
20260505184207 61 0.0 0.0 0.01 0.11 0.11 91 998.3
20260505183718 61 0.0 0.0 0.02 0.11 0.11 91 998.5
20260505183710 61 0.0 0.0 0.02 0.11 0.11 91 998.5
20260505183212 60 0.0 0.0 0.02 0.11 0.11 91 998.5
20260505183205 60 0.0 0.0 0.02 0.11 0.11 91 998.5
20260505182713 60 0.0 0.0 0.04 0.11 0.11 91 998.5
20260505182705 60 0.0 0.0 0.04 0.11 0.11 91 998.5
20260505182213 60 0.0 0.0 0.04 0.11 0.11 91 998.6
20260505182205 60 0.0 0.0 0.04 0.11 0.11 91 998.6
20260505181712 60 0.0 0.0 0.05 0.11 0.11 91 998.7
20260505181705 60 0.0 0.0 0.05 0.11 0.11 91 998.7
20260505181213 60 0.0 0.0 0.06 0.11 0.11 91 998.7
20260505181206 60 0.0 0.0 0.06 0.11 0.11 91 998.7
20260505180706 59 0.0 0.0 0.06 0.11 0.11 90 998.9
20260505180212 59 0.0 0.0 0.06 0.11 0.11 90 998.9
20260505180205 59 0.0 0.0 0.06 0.11 0.11 90 998.9
20260505175714 59 0.0 0.0 0.06 0.11 0.11 90 998.8
20260505175706 59 0.0 0.0 0.06 0.11 0.11 90 998.8
20260505175212 59 0.0 0.0 0.06 0.11 0.11 89 999.0
20260505175205 59 0.0 0.0 0.06 0.11 0.11 89 999.0
20260505174734 59 0.0 0.0 0.06 0.10 0.10 89 999.2
20260505174206 59 0.0 0.0 0.06 0.10 0.10 89 999.2
20260505173705 59 0.0 0.0 0.06 0.09 0.09 88 999.2
20260505173213 59 0.0 0.0 0.08 0.08 0.08 87 999.1
20260505173206 59 0.0 0.0 0.08 0.08 0.08 87 999.1
20260505172713 59 0.0 0.0 0.07 0.07 0.07 87 999.1
20260505172705 59 0.0 0.0 0.07 0.07 0.07 87 999.1
20260505172213 59 0.0 0.0 0.07 0.07 0.07 86 998.9
20260505172205 59 0.0 0.0 0.07 0.07 0.07 86 998.9
20260505171713 59 0.0 0.0 0.06 0.06 0.06 85 998.9
20260505171706 59 0.0 0.0 0.06 0.06 0.06 85 998.9
20260505171213 60 0.0 0.0 0.06 0.06 0.06 84 998.9
20260505171206 60 0.0 0.0 0.06 0.06 0.06 84 998.9
20260505170714 60 0.0 0.0 0.06 0.06 0.06 84 998.7
20260505170707 60 0.0 0.0 0.06 0.06 0.06 84 998.7
20260505170229 60 0.0 0.0 0.06 0.06 0.06 82 998.7
20260505165712 60 0.0 0.0 0.06 0.06 0.06 81 998.7
20260505165705 60 0.0 0.0 0.06 0.06 0.06 81 998.7
20260505165212 61 0.0 0.0 0.05 0.05 0.05 79 998.9
20260505165205 61 0.0 0.0 0.05 0.05 0.05 79 998.9
20260505164712 61 0.0 0.0 0.05 0.05 0.05 77 999.1
20260505164705 61 0.0 0.0 0.05 0.05 0.05 77 999.1
20260505164222 62 0.0 0.0 0.05 0.05 0.05 75 999.3
20260505163712 62 0.0 0.0 0.02 0.02 0.02 74 999.4
20260505163705 62 0.0 0.0 0.02 0.02 0.02 74 999.4
20260505163212 62 0.0 0.0 0.00 0.00 0.00 72 999.4
20260505163205 62 0.0 0.0 0.00 0.00 0.00 72 999.4
20260505162717 62 0.0 0.0 0.00 0.00 0.00 72 999.2
20260505162710 62 0.0 0.0 0.00 0.00 0.00 72 999.2
20260505162214 63 0.0 0.0 0.00 0.00 0.00 72 999.3
20260505162207 63 0.0 0.0 0.00 0.00 0.00 72 999.3
20260505161714 63 0.0 0.0 0.00 0.00 0.00 72 999.5
20260505161707 63 0.0 0.0 0.00 0.00 0.00 72 999.5
20260505161205 63 0.0 0.0 0.00 0.00 0.00 72 999.4
20260505160713 63 0.0 0.0 0.00 0.00 0.00 72 999.6
20260505160706 63 0.0 0.0 0.00 0.00 0.00 72 999.6
20260505160214 63 0.0 0.0 0.00 0.00 0.00 71 999.8
20260505160207 63 0.0 0.0 0.00 0.00 0.00 71 999.8
20260505152706 67 0.0 0.0 0.00 0.01 0.00 65 999.6
20260505152213 67 0.0 0.0 0.00 0.02 0.00 63 999.7
20260505152206 67 0.0 0.0 0.00 0.02 0.00 63 999.7
20260505151714 67 0.0 0.0 0.00 0.02 0.00 63 999.6
20260505151707 67 0.0 0.0 0.00 0.02 0.00 63 999.6
20260505151213 66 0.0 0.0 0.00 0.02 0.00 62 999.8
20260505151206 66 0.0 0.0 0.00 0.02 0.00 62 999.8
20260505150714 65 0.0 0.0 0.00 0.02 0.00 63 999.9
20260505150707 65 0.0 0.0 0.00 0.02 0.00 63 999.9
20260505150213 64 0.0 0.0 0.00 0.03 0.00 63 1000.0
20260505150206 64 0.0 0.0 0.00 0.03 0.00 63 1000.0
20260505140226 61 0.0 0.0 0.00 0.09 0.00 67 1000.2
20260505130213 56 0.0 0.0 0.00 0.09 0.00 72 1000.7
20260505130205 56 0.0 0.0 0.00 0.09 0.00 72 1000.7
20260505124705 56 0.0 0.0 0.00 0.09 0.00 74 1000.5
20260505124206 55 0.0 0.0 0.00 0.09 0.00 76 1000.6
20260505123711 55 0.0 0.0 0.00 0.09 0.00 78 1000.7
20260505123213 54 0.0 0.0 0.00 0.09 0.00 80 1000.7
20260505123206 54 0.0 0.0 0.00 0.09 0.00 80 1000.7
20260505122740 53 0.0 0.0 0.00 0.09 0.00 81 1000.9
20260505122733 53 0.0 0.0 0.00 0.09 0.00 81 1000.9
20260505122206 53 0.0 0.0 0.00 0.09 0.00 82 1000.9
20260505121707 52 0.0 0.0 0.00 0.09 0.00 83 1000.9
20260505121212 52 0.0 0.0 0.00 0.09 0.00 84 1001.0
20260505121206 52 0.0 0.0 0.00 0.09 0.00 84 1001.0
20260505120713 51 0.0 0.0 0.00 0.09 0.00 84 1001.1
20260505120706 51 0.0 0.0 0.00 0.09 0.00 84 1001.1
20260505120213 51 0.0 0.0 0.00 0.09 0.00 85 1001.1
20260505120206 51 0.0 0.0 0.00 0.09 0.00 85 1001.1
20260505115713 51 0.0 0.0 0.00 0.09 0.00 86 1001.2
20260505115705 51 0.0 0.0 0.00 0.09 0.00 86 1001.2
20260505115223 50 0.0 0.0 0.00 0.09 0.00 87 1001.3
20260505114727 50 0.0 0.0 0.00 0.09 0.00 88 1001.2
20260505114232 50 0.0 0.0 0.00 0.09 0.00 89 1001.2
20260505113712 49 0.0 0.0 0.00 0.09 0.00 90 1001.2
20260505113705 49 0.0 0.0 0.00 0.09 0.00 90 1001.2
20260505113213 49 0.0 0.0 0.00 0.09 0.00 91 1001.2
20260505113206 49 0.0 0.0 0.00 0.09 0.00 91 1001.2
20260505112712 48 0.0 0.0 0.00 0.09 0.00 91 1001.3
20260505112706 48 0.0 0.0 0.00 0.09 0.00 91 1001.3
20260505112213 48 0.0 0.0 0.00 0.09 0.00 92 1001.3
20260505112206 48 0.0 0.0 0.00 0.09 0.00 92 1001.3
20260505111729 47 0.0 0.0 0.00 0.09 0.00 92 1001.2
20260505111212 47 0.0 0.0 0.00 0.09 0.00 92 1001.2
20260505111205 47 0.0 0.0 0.00 0.09 0.00 92 1001.2
20260505110729 46 0.0 0.0 0.00 0.09 0.00 92 1001.1
20260505110239 46 0.0 0.0 0.00 0.09 0.00 92 1001.2
20260505110232 46 0.0 0.0 0.00 0.09 0.00 92 1001.2
20260505102214 43 0.0 0.0 0.00 0.09 0.00 92 1001.1
20260505102207 43 0.0 0.0 0.00 0.09 0.00 92 1001.1
20260505101714 43 0.0 0.0 0.00 0.09 0.00 92 1001.2
20260505101707 43 0.0 0.0 0.00 0.09 0.00 92 1001.2
20260505101238 43 0.0 0.0 0.00 0.09 0.00 92 1001.4
20260505101231 43 0.0 0.0 0.00 0.09 0.00 92 1001.4
20260505100712 42 0.0 0.0 0.00 0.09 0.00 92 1001.6
20260505100705 42 0.0 0.0 0.00 0.09 0.00 92 1001.6
20260505100254 42 0.0 0.0 0.00 0.09 0.00 92 1001.6
20260505095714 42 0.0 0.0 0.00 0.09 0.00 92 1001.6
20260505095707 42 0.0 0.0 0.00 0.09 0.00 92 1001.6
20260505095214 42 0.0 0.0 0.00 0.09 0.00 92 1001.5
20260505095206 42 0.0 0.0 0.00 0.09 0.00 92 1001.5
20260505094715 42 0.0 0.0 0.00 0.09 0.00 92 1001.7
20260505094708 42 0.0 0.0 0.00 0.09 0.00 92 1001.7
20260505094213 42 0.0 0.0 0.00 0.09 0.00 92 1001.6
20260505094206 42 0.0 0.0 0.00 0.09 0.00 92 1001.6
20260505093713 42 0.0 0.0 0.00 0.09 0.00 91 1001.5
20260505093706 42 0.0 0.0 0.00 0.09 0.00 91 1001.5
20260505093234 42 0.0 0.0 0.00 0.09 0.00 91 1001.5
20260505092712 42 0.0 0.0 0.00 0.09 0.00 91 1001.6
20260505092705 42 0.0 0.0 0.00 0.09 0.00 91 1001.6
20260505092213 42 0.0 0.0 0.00 0.09 0.00 91 1001.8
20260505092206 42 0.0 0.0 0.00 0.09 0.00 91 1001.8
20260505091713 42 0.0 0.0 0.00 0.09 0.00 91 1001.8
20260505091706 42 0.0 0.0 0.00 0.09 0.00 91 1001.8
20260505091213 42 0.0 0.0 0.00 0.09 0.00 91 1001.8
20260505091206 42 0.0 0.0 0.00 0.09 0.00 91 1001.8
20260505090712 42 0.0 0.0 0.00 0.09 0.00 91 1001.7
20260505090705 42 0.0 0.0 0.00 0.09 0.00 91 1001.7
20260505090206 42 0.0 0.0 0.00 0.09 0.00 91 1001.8
20260505085712 42 0.0 0.0 0.00 0.09 0.00 91 1001.9
20260505085705 42 0.0 0.0 0.00 0.09 0.00 91 1001.9
20260505085213 43 0.0 0.0 0.00 0.09 0.00 91 1001.7
20260505085206 43 0.0 0.0 0.00 0.09 0.00 91 1001.7
20260505084712 43 0.0 0.0 0.00 0.09 0.00 91 1001.7
20260505084705 43 0.0 0.0 0.00 0.09 0.00 91 1001.7
20260505084213 43 0.0 0.0 0.00 0.09 0.00 91 1001.7
20260505084206 43 0.0 0.0 0.00 0.09 0.00 91 1001.7
20260505083712 43 0.0 0.0 0.00 0.09 0.00 91 1001.8
20260505083705 43 0.0 0.0 0.00 0.09 0.00 91 1001.8
20260505083212 43 0.0 0.0 0.00 0.09 0.00 91 1001.7
20260505083205 43 0.0 0.0 0.00 0.09 0.00 91 1001.7
20260505082713 43 0.0 0.0 0.00 0.09 0.00 91 1001.7
20260505082705 43 0.0 0.0 0.00 0.09 0.00 91 1001.7
20260505082213 43 0.0 0.0 0.00 0.09 0.00 91 1001.9
20260505082206 43 0.0 0.0 0.00 0.09 0.00 91 1001.9
20260505081705 43 0.0 0.0 0.00 0.09 0.00 91 1001.9
20260505081212 43 0.0 0.0 0.00 0.09 0.00 91 1002.0
20260505081205 43 0.0 0.0 0.00 0.09 0.00 91 1002.0
20260505080712 43 0.0 0.0 0.00 0.09 0.00 91 1001.9
20260505080705 43 0.0 0.0 0.00 0.09 0.00 91 1001.9
20260505080212 43 0.0 0.0 0.00 0.09 0.00 91 1002.0
20260505080205 43 0.0 0.0 0.00 0.09 0.00 91 1002.0
20260505075707 43 0.0 0.0 0.00 0.09 0.00 91 1002.0
20260505075235 43 0.0 0.0 0.00 0.09 0.00 91 1002.2
20260505074713 43 0.0 0.0 0.00 0.09 0.00 91 1002.2
20260505074706 43 0.0 0.0 0.00 0.09 0.00 91 1002.2
20260505074213 43 0.0 0.0 0.00 0.09 0.00 91 1002.1
20260505074206 43 0.0 0.0 0.00 0.09 0.00 91 1002.1
20260505073712 43 0.0 0.0 0.00 0.09 0.00 91 1002.2
20260505073705 43 0.0 0.0 0.00 0.09 0.00 91 1002.2
20260505073212 43 0.0 0.0 0.00 0.09 0.00 91 1002.3
20260505073205 43 0.0 0.0 0.00 0.09 0.00 91 1002.3
20260505072706 43 0.0 0.0 0.00 0.09 0.00 90 1002.2
20260505072206 43 0.0 0.0 0.00 0.09 0.00 90 1002.2
20260505071734 43 0.0 0.0 0.00 0.09 0.00 90 1002.1
20260505071213 43 0.0 0.0 0.00 0.09 0.00 90 1002.1
20260505071206 43 0.0 0.0 0.00 0.09 0.00 90 1002.1
20260505070714 43 0.0 0.0 0.00 0.09 0.00 90 1002.1
20260505070707 43 0.0 0.0 0.00 0.09 0.00 90 1002.1
20260505070213 43 0.0 0.0 0.00 0.09 0.00 90 1002.2
20260505070206 43 0.0 0.0 0.00 0.09 0.00 90 1002.2
20260505065705 43 0.0 0.0 0.00 0.09 0.00 90 1002.3
20260505065206 43 0.0 0.0 0.00 0.09 0.00 89 1002.5
20260505064712 43 0.0 0.0 0.00 0.09 0.00 89 1002.4
20260505064705 43 0.0 0.0 0.00 0.09 0.00 89 1002.4
20260505064206 43 0.0 0.0 0.00 0.09 0.00 89 1002.4
20260505063705 43 0.0 0.0 0.00 0.09 0.00 89 1002.5
20260505063214 43 0.0 0.0 0.00 0.09 0.00 89 1002.6
20260505063207 43 0.0 0.0 0.00 0.09 0.00 89 1002.6
20260505062710 43 0.0 0.0 0.00 0.09 0.00 89 1002.6
20260505062235 44 0.0 0.0 0.00 0.09 0.00 89 1002.6
20260505061712 44 0.0 0.0 0.00 0.09 0.00 89 1002.7
20260505061705 44 0.0 0.0 0.00 0.09 0.00 89 1002.7
20260505061212 44 0.0 0.0 0.00 0.09 0.00 89 1002.8
20260505061205 44 0.0 0.0 0.00 0.09 0.00 89 1002.8
20260505060713 44 0.0 0.0 0.00 0.09 0.00 89 1002.8
20260505060706 44 0.0 0.0 0.00 0.09 0.00 89 1002.8
20260505060213 44 0.0 0.0 0.00 0.09 0.00 89 1002.9
20260505060206 44 0.0 0.0 0.00 0.09 0.00 89 1002.9
20260505055205 44 0.0 0.0 0.00 0.09 0.00 88 1003.2
20260505054731 44 0.0 0.0 0.00 0.09 0.00 88 1003.2
20260505054215 44 0.0 0.0 0.00 0.09 0.00 89 1003.3
20260505054208 44 0.0 0.0 0.00 0.09 0.00 89 1003.3
20260505053734 44 0.0 0.0 0.00 0.09 0.00 89 1003.4
20260505053214 45 0.0 0.0 0.00 0.09 0.00 88 1003.5
20260505053207 45 0.0 0.0 0.00 0.09 0.00 88 1003.5
20260505052713 45 0.0 0.0 0.00 0.09 0.00 88 1003.5
20260505052706 45 0.0 0.0 0.00 0.09 0.00 88 1003.5
20260505052212 45 0.0 0.0 0.00 0.09 0.00 88 1003.5
20260505052205 45 0.0 0.0 0.00 0.09 0.00 88 1003.5
20260505051732 45 0.0 0.0 0.00 0.09 0.00 88 1003.6
20260505051213 45 0.0 0.0 0.00 0.09 0.00 88 1003.6
20260505051206 45 0.0 0.0 0.00 0.09 0.00 88 1003.6
20260505050712 45 0.0 0.0 0.00 0.09 0.00 88 1003.6
20260505050705 45 0.0 0.0 0.00 0.09 0.00 88 1003.6
20260505050214 45 0.0 0.0 0.00 0.09 0.00 88 1003.7
20260505050207 45 0.0 0.0 0.00 0.09 0.00 88 1003.7
20260505041713 45 0.0 0.0 0.00 0.09 0.00 87 1004.1
20260505041706 45 0.0 0.0 0.00 0.09 0.00 87 1004.1
20260505041212 46 0.0 0.0 0.00 0.09 0.00 87 1004.2
20260505041205 46 0.0 0.0 0.00 0.09 0.00 87 1004.2
20260505040706 46 0.0 0.0 0.00 0.09 0.00 86 1004.2
20260505040223 46 0.0 0.0 0.00 0.09 0.09 86 1004.1
20260505035712 46 0.0 0.0 0.00 0.09 0.09 86 1004.2
20260505035705 46 0.0 0.0 0.00 0.09 0.09 86 1004.2
20260505035229 45 0.0 0.0 0.00 0.09 0.09 86 1004.2
20260505034712 45 0.0 0.0 0.00 0.09 0.09 86 1004.3
20260505034705 45 0.0 0.0 0.00 0.09 0.09 86 1004.3
20260505034206 46 0.0 0.0 0.00 0.09 0.09 86 1004.4
20260505033705 45 0.0 0.0 0.00 0.09 0.09 86 1004.4
20260505033213 45 0.0 0.0 0.00 0.09 0.09 86 1004.2
20260505033206 45 0.0 0.0 0.00 0.09 0.09 86 1004.2
20260505032706 45 0.0 0.0 0.00 0.09 0.09 85 1004.3
20260505032223 45 0.0 0.0 0.00 0.09 0.09 85 1004.4
20260505031713 45 0.0 0.0 0.00 0.09 0.09 85 1004.5
20260505031706 45 0.0 0.0 0.00 0.09 0.09 85 1004.5
20260505031205 45 0.0 0.0 0.00 0.09 0.09 85 1004.5
20260505030713 46 0.0 0.0 0.00 0.09 0.09 85 1004.6
20260505030706 46 0.0 0.0 0.00 0.09 0.09 85 1004.6
20260505030229 46 0.0 0.0 0.00 0.09 0.09 85 1004.6
20260505025705 46 0.0 0.0 0.00 0.09 0.09 85 1004.6
20260505025213 45 0.0 0.0 0.00 0.09 0.09 85 1004.6
20260505025206 45 0.0 0.0 0.00 0.09 0.09 85 1004.6
20260505024712 45 0.0 0.0 0.00 0.09 0.09 85 1004.6
20260505024705 45 0.0 0.0 0.00 0.09 0.09 85 1004.6
20260505024221 45 0.0 0.0 0.00 0.09 0.09 85 1004.6
20260505024214 45 0.0 0.0 0.00 0.09 0.09 85 1004.6
20260505023713 45 0.0 0.0 0.00 0.09 0.09 85 1004.6
20260505023706 45 0.0 0.0 0.00 0.09 0.09 85 1004.6
20260505023212 45 0.0 0.0 0.00 0.09 0.09 85 1004.6
20260505023205 45 0.0 0.0 0.00 0.09 0.09 85 1004.6
20260505022713 45 0.0 0.0 0.00 0.09 0.09 85 1004.8
20260505022706 45 0.0 0.0 0.00 0.09 0.09 85 1004.8
20260505022215 45 0.0 0.0 0.00 0.09 0.09 85 1004.8
20260505022208 45 0.0 0.0 0.00 0.09 0.09 85 1004.8
20260505021712 45 0.0 0.0 0.00 0.09 0.09 85 1004.8
20260505021705 45 0.0 0.0 0.00 0.09 0.09 85 1004.8
20260505021206 45 0.0 0.0 0.00 0.09 0.09 85 1004.8
20260505020713 45 0.0 0.0 0.00 0.09 0.09 84 1004.8
20260505020706 45 0.0 0.0 0.00 0.09 0.09 84 1004.8
20260505020213 45 0.0 0.0 0.00 0.09 0.09 84 1004.9
20260505020206 45 0.0 0.0 0.00 0.09 0.09 84 1004.9
20260505015732 45 0.0 0.0 0.00 0.09 0.09 84 1004.9
20260505015205 45 0.0 0.0 0.00 0.09 0.09 84 1004.9
20260505014730 45 0.0 0.0 0.00 0.09 0.09 84 1005.0
20260505014226 45 0.0 0.0 0.00 0.09 0.09 84 1005.0
20260505013712 45 0.0 0.0 0.00 0.09 0.09 84 1005.0
20260505013705 45 0.0 0.0 0.00 0.09 0.09 84 1005.0
20260505012712 45 0.0 0.0 0.00 0.09 0.09 83 1005.1
20260505012705 45 0.0 0.0 0.00 0.09 0.09 83 1005.1
20260505012212 45 0.0 0.0 0.00 0.09 0.09 83 1005.1
20260505012205 45 0.0 0.0 0.00 0.09 0.09 83 1005.1
20260505011708 45 0.0 0.0 0.00 0.09 0.09 82 1005.1
20260505011215 45 0.0 0.0 0.00 0.09 0.09 82 1005.0
20260505011208 45 0.0 0.0 0.00 0.09 0.09 82 1005.0
20260505010724 45 0.0 0.0 0.00 0.09 0.09 81 1005.1
20260505010213 45 0.0 0.0 0.00 0.09 0.09 81 1005.2
20260505010206 45 0.0 0.0 0.00 0.09 0.09 81 1005.2
20260505005713 46 0.0 0.0 0.00 0.09 0.09 80 1005.1
20260505005706 46 0.0 0.0 0.00 0.09 0.09 80 1005.1
20260505005212 46 0.0 0.0 0.00 0.09 0.09 79 1005.1
20260505005205 46 0.0 0.0 0.00 0.09 0.09 79 1005.1
20260505004223 46 0.0 0.0 0.00 0.09 0.09 79 1004.9
20260505003712 47 0.0 0.0 0.00 0.09 0.09 78 1005.0
20260505003705 47 0.0 0.0 0.00 0.09 0.09 78 1005.0
20260505003214 47 0.0 0.0 0.00 0.09 0.09 78 1004.9
20260505003207 47 0.0 0.0 0.00 0.09 0.09 78 1004.9
20260505002705 47 0.0 0.0 0.00 0.09 0.09 77 1004.8
20260505002214 47 0.0 0.0 0.00 0.09 0.09 77 1004.6
20260505002207 47 0.0 0.0 0.00 0.09 0.09 77 1004.6
20260505001707 48 0.0 0.0 0.00 0.09 0.09 76 1004.7
20260505001233 48 0.0 0.0 0.00 0.09 0.09 76 1004.6
20260505000713 48 0.0 0.0 0.00 0.09 0.09 79 1004.6
20260505000706 48 0.0 0.0 0.00 0.09 0.09 79 1004.6
20260504235712 49 0.0 0.0 0.00 0.09 0.09 74 1004.7
20260504235705 49 0.0 0.0 0.00 0.09 0.09 74 1004.7
20260504235212 49 0.0 0.0 0.00 0.09 0.09 74 1004.8
20260504235205 49 0.0 0.0 0.00 0.09 0.09 74 1004.8
20260504234731 49 0.0 0.0 0.00 0.09 0.09 74 1004.8
20260504234227 49 0.0 0.0 0.00 0.09 0.09 73 1004.6
20260504233726 49 0.0 0.0 0.00 0.09 0.09 73 1004.6
20260504233213 49 0.0 0.0 0.00 0.09 0.09 73 1004.6
20260504233206 49 0.0 0.0 0.00 0.09 0.09 73 1004.6
20260504232717 50 0.0 0.0 0.00 0.09 0.09 72 1004.4
20260504232710 50 0.0 0.0 0.00 0.09 0.09 72 1004.4
20260504232232 50 0.0 0.0 0.00 0.09 0.09 72 1004.3
20260504231803 50 0.0 0.0 0.00 0.09 0.09 72 1004.4
20260504231213 50 0.0 0.0 0.00 0.09 0.09 71 1004.2
20260504231206 50 0.0 0.0 0.00 0.09 0.09 71 1004.2
20260504230713 50 0.0 0.0 0.00 0.09 0.09 71 1004.3
20260504230706 50 0.0 0.0 0.00 0.09 0.09 71 1004.3
20260504230213 50 0.0 0.0 0.00 0.09 0.09 71 1004.3
20260504230206 50 0.0 0.0 0.00 0.09 0.09 71 1004.3
20260504225706 50 0.0 0.0 0.00 0.09 0.09 72 1004.2
20260504225226 50 0.0 0.0 0.00 0.09 0.09 71 1004.1
20260504224712 50 0.0 0.0 0.00 0.09 0.09 71 1004.1
20260504224705 50 0.0 0.0 0.00 0.09 0.09 71 1004.1
20260504224213 50 0.0 0.0 0.00 0.09 0.09 70 1004.0
20260504224205 50 0.0 0.0 0.00 0.09 0.09 70 1004.0
20260504223715 51 0.0 0.0 0.00 0.09 0.09 70 1004.1
20260504223708 51 0.0 0.0 0.00 0.09 0.09 70 1004.1
20260504223216 51 0.0 0.0 0.00 0.09 0.09 70 1004.0
20260504223209 51 0.0 0.0 0.00 0.09 0.09 70 1004.0
20260504222713 51 0.0 0.0 0.00 0.09 0.09 70 1004.1
20260504222706 51 0.0 0.0 0.00 0.09 0.09 70 1004.1
20260504222237 51 0.0 0.0 0.00 0.09 0.09 71 1004.0
20260504222230 51 0.0 0.0 0.00 0.09 0.09 71 1004.0
20260504221707 51 0.0 0.0 0.00 0.09 0.09 71 1004.0
20260504221213 51 0.0 0.0 0.00 0.09 0.09 72 1004.1
20260504221205 51 0.0 0.0 0.00 0.09 0.09 72 1004.1
20260504220714 51 0.0 0.0 0.00 0.09 0.09 72 1004.1
20260504220707 51 0.0 0.0 0.00 0.09 0.09 72 1004.1
20260504220214 50 0.0 0.0 0.00 0.09 0.09 72 1004.0
20260504220206 50 0.0 0.0 0.00 0.09 0.09 72 1004.0
20260504215705 50 0.0 0.0 0.00 0.09 0.09 72 1004.0
20260504215221 50 0.0 0.0 0.00 0.09 0.09 73 1004.0
20260504214705 50 0.0 0.0 0.00 0.09 0.09 72 1003.9
20260504214227 50 0.0 0.0 0.00 0.09 0.09 72 1004.0
20260504213712 50 0.0 0.0 0.00 0.09 0.09 72 1004.2
20260504213705 50 0.0 0.0 0.00 0.09 0.09 72 1004.2
20260504213213 50 0.0 0.0 0.00 0.09 0.09 72 1004.0
20260504213206 50 0.0 0.0 0.00 0.09 0.09 72 1004.0
20260504212714 50 0.0 0.0 0.00 0.09 0.09 73 1004.0
20260504212707 50 0.0 0.0 0.00 0.09 0.09 73 1004.0
20260504212213 50 0.0 0.0 0.00 0.09 0.09 73 1004.1
20260504212206 50 0.0 0.0 0.00 0.09 0.09 73 1004.1